Dziwno, Poland

3:59 PM CEST on August 19, 2018 (GMT +0200)
GRUDZ PAPA | | Change Station

Elev 85 ft 53.49 °N, 18.75 °E | Updated 21 seconds ago

Mostly Cloudy
Mostly Cloudy
89.6 °F
Feels Like 87 °F
N
0.2
Wind Variable Wind from North
Gusts 1.1 mph

Today
High -- | Low -- °F
--% Chance of Precip.
Yesterday
High -- | Low -- °F
Precip. -- in
Pressure 30.06 in
Visibility -9999.0 miles
Clouds
Heat Index 87 °F
Dew Point 53 °F
Humidity 29%
Rainfall 0.00 in
Snow Depth Not available.
5:30 AM 8:04 PM
Waxing Gibbous, 62% visible
METAR EPBY 191330Z 29006KT 220V360 CAVOK 28/10 Q1018
Pressure 30.06 in
Visibility -9999.0 miles
Clouds
Heat Index 87 °F
Dew Point 53 °F
Humidity 29%
Rainfall 0.00 in
Snow Depth Not available.
5:30 AM 8:04 PM
Waxing Gibbous, 62% visible
METAR EPBY 191330Z 29006KT 220V360 CAVOK 28/10 Q1018

Get Severe Weather Alerts

Thanks for signing up!

Be on the lookout for a verification email in your inbox.

You'll start receiving the daily forecast at 6 AM.

×

10-Day Weather Forecast

×

Almanac

Astronomy

Aug. 19, 2018 Rise Set
Actual Time
Civil Twilight
Nautical Twilight
Astronomical Twilight
Moon
Length of Visible Light
Length of Day
Tomorrow will be .
, % of the Moon is Illuminated

Today's Extremes

Country Highs Country Lows

Community

WunderPhotos

Category 6

Welcome to Category 6. This is the collective home for Weather Underground's featured writeups by Dr. Jeff Masters (right), Bob Henson (left), Chris Burt, and other regular contributors.

Nearby

Air Quality

  Air Quality AQ Index Pollutant
Not available.

Snow Depth

Station Depth Elevation

Earthquake Activity

City Distance Mag. Time & Date
Minimum magnitude displayed is 2.5.

Coastal Water Temperatures

Place Temperature

Stations

Nearby Weather Stations

Station Location Temp. Windchill Dew Point Humidity Wind Precip. Elev Updated Type